Date String (YYYY-MM-DD hh:mm:ss) UTC,Instrument flags,Ambient pressure (hPa),Sample flow (lpm),Bypass flow (lpm),Sample temperature (°C),Ambient temperature (°C),ASC tube jacket temperature (°C),LED temperature (°C),Box temperature (°C),Sample RH (%),Span deviation,Mass concentration (μg/m³),Mass concentration (μg/m³),Mass concentration (μg/m³)
DateTimeUTC,F1_M11,P_M11,Q1_M11,Q2_M11,T1_M11,T2_M11,T3_M11,T4_M11,T5_M11,U1_M11,ZSPAN_M11,X2_M11,X0_M11,X1_M11
2023-02-02 21:00:00,,0831.2,4.99,0.00,27.1,26.1,00.0,35.8,29.0,09.1,0002.3,0013.50,0028.14,0011.49
2023-02-02 21:01:00,,0831.2,5.01,0.00,27.2,26.1,00.0,35.9,29.0,09.0,0002.9,0013.51,0029.92,0011.47
2023-02-02 21:02:00,,0831.2,5.02,0.00,27.2,26.1,00.0,35.9,29.0,08.9,0003.2,0013.57,0030.60,0011.47
2023-02-02 21:03:00,,0831.2,5.01,0.00,27.2,26.1,00.0,35.9,29.0,08.9,0003.0,0013.61,0030.05,0011.55
2023-02-02 21:04:00,,0831.2,5.01,0.00,27.2,26.1,00.0,35.9,29.0,09.1,0003.0,0013.70,0029.82,0011.63
2023-02-02 21:05:00,,0831.2,4.99,0.00,27.2,26.2,00.0,35.9,29.0,08.9,0003.0,0013.80,0030.47,0011.75
2023-02-02 21:06:00,,0831.2,4.98,0.00,27.3,26.2,00.0,35.9,29.1,09.2,0003.0,0013.91,0031.51,0011.88
2023-02-02 21:07:00,,0831.2,4.97,0.00,27.3,26.2,00.0,35.9,29.1,09.3,0003.4,0013.97,0031.45,0011.94
2023-02-02 21:08:00,,0831.2,5.00,0.00,27.3,26.2,00.0,36.0,29.1,09.0,0003.9,0014.01,0032.01,0011.98
2023-02-02 21:09:00,,0831.1,5.03,0.00,27.3,26.2,00.0,36.0,29.1,09.0,0004.0,0014.11,0031.79,0012.04
2023-02-02 21:10:00,,0831.1,5.02,0.00,27.3,26.3,00.0,36.0,29.1,09.3,0004.1,0014.14,0031.51,0012.11
2023-02-02 21:11:00,,0831.1,5.01,0.00,27.3,26.3,00.0,36.0,29.2,09.0,0003.8,0014.18,0030.65,0012.16
2023-02-02 21:12:00,,0831.1,4.99,0.00,27.3,26.3,00.0,36.0,29.2,09.0,0003.7,0014.24,0029.42,0012.22
2023-02-02 21:13:00,,0831.1,4.99,0.00,27.4,26.3,00.0,36.0,29.2,08.9,0003.2,0014.34,0029.08,0012.30
2023-02-02 21:14:00,,0831.1,4.99,0.00,27.4,26.3,00.0,36.1,29.2,08.9,0003.0,0014.46,0030.12,0012.37
2023-02-02 21:15:00,,0831.2,5.01,0.00,27.4,26.3,00.0,36.1,29.2,09.0,0002.9,0014.52,0030.41,0012.43
2023-02-02 21:16:00,,0831.2,5.00,0.00,27.4,26.4,00.0,36.1,29.2,08.8,0003.4,0014.62,0030.07,0012.46
2023-02-02 21:17:00,,0831.2,5.00,0.00,27.4,26.4,00.0,36.1,29.3,08.9,0004.0,0014.63,0029.10,0012.47
2023-02-02 21:18:00,,0831.2,5.01,0.00,27.5,26.4,00.0,36.1,29.3,08.9,0003.3,0014.66,0028.57,0012.50
2023-02-02 21:19:00,,0831.2,4.95,0.00,27.5,26.4,00.0,36.1,29.3,09.1,0003.3,0014.73,0029.18,0012.53
2023-02-02 21:20:00,,0831.2,5.03,0.00,27.5,26.4,00.0,36.2,29.3,08.9,0003.6,0014.72,0029.50,0012.55
2023-02-02 21:21:00,,0831.2,4.96,0.00,27.5,26.4,00.0,36.2,29.3,08.9,0003.4,0014.65,0029.65,0012.57
2023-02-02 21:22:00,,0831.2,5.04,0.00,27.5,26.5,00.0,36.2,29.3,09.0,0004.4,0014.66,0030.61,0012.61
2023-02-02 21:23:00,,0831.2,4.97,0.00,27.5,26.5,00.0,36.2,29.4,09.0,0004.5,0014.69,0030.88,0012.64
2023-02-02 21:24:00,,0831.2,5.03,0.00,27.6,26.5,00.0,36.2,29.4,09.1,0004.6,0014.64,0030.83,0012.65
2023-02-02 21:25:00,,0831.2,4.96,0.00,27.6,26.5,00.0,36.2,29.4,09.2,0004.9,0014.62,0030.18,0012.67
2023-02-02 21:26:00,,0831.2,5.03,0.00,27.6,26.5,00.0,36.3,29.4,08.9,0005.1,0014.64,0029.24,0012.69
2023-02-02 21:27:00,,0831.2,5.03,0.00,27.6,26.5,00.0,36.3,29.4,08.8,0003.8,0014.63,0029.92,0012.73
2023-02-02 21:28:00,,0831.2,4.96,0.00,27.6,26.5,00.0,36.3,29.4,08.9,0004.8,0014.60,0030.38,0012.76
2023-02-02 21:29:00,,0831.2,5.01,0.00,27.6,26.6,00.0,36.3,29.4,09.0,0005.1,0014.58,0030.66,0012.78
2023-02-02 21:30:00,,0831.2,4.99,0.00,27.7,26.6,00.0,36.3,29.5,08.9,0002.7,0014.55,0030.26,0012.78
2023-02-02 21:31:00,,0831.2,4.97,0.00,27.7,26.6,00.0,36.3,29.5,08.9,0004.5,0014.45,0029.80,0012.76
2023-02-02 21:32:00,,0831.2,5.03,0.00,27.7,26.6,00.0,36.4,29.5,08.7,0004.8,0014.39,0029.09,0012.72
2023-02-02 21:33:00,,0831.2,4.96,0.00,27.7,26.6,00.0,36.4,29.5,08.7,0002.2,0014.35,0028.13,0012.69
2023-02-02 21:34:00,,0831.2,5.02,0.00,27.7,26.6,00.0,36.4,29.5,08.9,0000.0,0014.28,0027.64,0012.69
2023-02-02 21:35:00,,0831.2,5.02,0.00,27.7,26.6,00.0,36.4,29.5,08.8,0000.0,0014.27,0027.86,0012.69
2023-02-02 21:36:00,,0831.2,5.01,0.00,27.7,26.7,00.0,36.4,29.6,08.8,0003.1,0014.25,0027.86,0012.68
2023-02-02 21:37:00,,0831.3,4.96,0.00,27.8,26.7,00.0,36.4,29.6,08.9,0004.0,0014.19,0027.77,0012.64
2023-02-02 21:38:00,,0831.2,5.01,0.00,27.8,26.7,00.0,36.5,29.6,09.1,0002.0,0014.18,0026.13,0012.60
2023-02-02 21:39:00,,0831.3,5.03,0.00,27.8,26.7,00.0,36.5,29.6,09.2,0000.0,0014.13,0025.73,0012.53
2023-02-02 21:40:00,,0831.4,5.02,0.00,27.8,26.7,00.0,36.5,29.6,08.8,0001.9,0014.07,0027.43,0012.46
2023-02-02 21:41:00,,0831.4,4.95,0.00,27.8,26.7,00.0,36.5,29.6,08.8,0002.1,0013.96,0027.38,0012.35
2023-02-02 21:42:00,,0831.4,5.02,0.00,27.8,26.7,00.0,36.5,29.6,08.9,0000.0,0013.88,0027.12,0012.21
2023-02-02 21:43:00,,0831.4,5.03,0.00,27.8,26.8,00.0,36.5,29.7,09.1,0000.0,0013.72,0027.41,0012.03
2023-02-02 21:44:00,,0831.3,4.95,0.00,27.9,26.8,00.0,36.5,29.7,09.1,0000.0,0013.49,0026.63,0011.81
2023-02-02 21:45:00,,0831.3,5.03,0.00,27.9,26.8,00.0,36.6,29.7,09.0,0000.0,0013.27,0026.29,0011.57
2023-02-02 21:46:00,,0831.4,5.02,0.00,27.9,26.8,00.0,36.6,29.7,09.1,0000.0,0013.09,0027.10,0011.41
2023-02-02 21:47:00,,0831.4,4.95,0.00,27.9,26.8,00.0,36.6,29.7,08.9,0000.0,0012.87,0027.15,0011.24
2023-02-02 21:48:00,,0831.4,5.03,0.00,27.9,26.8,00.0,36.6,29.7,08.8,0000.0,0012.74,0028.26,0011.08
2023-02-02 21:49:00,,0831.5,5.02,0.00,27.9,26.8,00.0,36.6,29.8,08.9,0000.0,0012.58,0028.34,0010.96
2023-02-02 21:50:00,,0831.5,5.00,0.00,27.9,26.8,00.0,36.6,29.7,08.9,0000.0,0012.43,0027.60,0010.83
2023-02-02 21:51:00,,0831.5,4.97,0.00,28.0,26.9,00.0,36.7,29.8,08.9,0000.0,0012.24,0025.70,0010.67
2023-02-02 21:52:00,,0831.5,5.02,0.00,28.0,26.9,00.0,36.7,29.8,08.8,0000.0,0012.09,0025.03,0010.52
2023-02-02 21:53:00,,0831.5,5.02,0.00,28.0,26.9,00.0,36.7,29.8,08.9,0000.0,0011.93,0025.04,0010.38
2023-02-02 21:54:00,,0831.5,5.02,0.00,28.0,26.9,00.0,36.7,29.8,09.1,0000.0,0011.86,0026.36,0010.29
2023-02-02 21:55:00,,0831.5,4.95,0.00,28.0,26.9,00.0,36.7,29.8,08.8,0000.0,0011.71,0026.84,0010.20
2023-02-02 21:56:00,,0831.5,5.02,0.00,28.0,26.9,00.0,36.7,29.8,08.7,0000.0,0011.50,0026.36,0010.04
2023-02-02 21:57:00,,0831.4,5.03,0.00,28.0,26.9,00.0,36.7,29.9,09.2,0000.0,0011.18,0024.26,0009.80
2023-02-02 21:58:00,,0831.5,4.98,0.00,28.1,26.9,00.0,36.7,29.9,09.2,0000.0,0010.90,0023.37,0009.54
2023-02-02 21:59:00,,0831.4,5.00,0.00,28.1,27.0,00.0,36.8,29.9,09.5,0000.0,0010.70,0021.88,0009.35
